• In Romania
  • List of Countries
  • For 7 days
  • Water Temperature
  • Satellite Maps
  • Weather Map
  • Weather Widgets
  • user-avatar
    Login

    Hourly Weather Salta

    Today, 26 June, Monday

    Time Temperature Precipitation Wind Pressure Humidity
    00:00 +17°C° 0 mm 2 mps 649 mmHg 71%
    01:00 +17°C° 0 mm 2 mps 649 mmHg 70%
    02:00 +16°C° 0 mm 2 mps 649 mmHg 68%
    03:00 +16°C° 0 mm 2 mps 648 mmHg 67%
    04:00 +16°C° 0 mm 3 mps 648 mmHg 66%
    05:00 +16°C° 0 mm 3 mps 648 mmHg 65%
    06:00 +16°C° 0 mm 3 mps 648 mmHg 62%
    07:00 +17°C° 0 mm 3 mps 648 mmHg 59%
    08:00 +18°C° 0 mm 3 mps 648 mmHg 55%
    09:00 +20°C° 0 mm 3 mps 648 mmHg 52%
    10:00 +22°C° 0 mm 4 mps 648 mmHg 48%
    11:00 +25°C° 0 mm 4 mps 648 mmHg 45%
    12:00 +25°C° 0 mm 4 mps 648 mmHg 42%
    13:00 +26°C° 0 mm 4 mps 648 mmHg 40%
    14:00 +27°C° 0 mm 5 mps 647 mmHg 38%
    15:00 +26°C° 0 mm 4 mps 647 mmHg 43%
    16:00 +24°C° 0 mm 3 mps 647 mmHg 49%
    17:00 +22°C° 0 mm 3 mps 647 mmHg 54%
    18:00 +20°C° 0 mm 2 mps 647 mmHg 58%
    19:00 +19°C° 0 mm 2 mps 647 mmHg 62%
    20:00 +17°C° 0 mm 2 mps 647 mmHg 67%
    21:00 +17°C° 0 mm 2 mps 648 mmHg 63%
    22:00 +17°C° 0 mm 3 mps 648 mmHg 60%
    23:00 +17°C° 0 mm 3 mps 648 mmHg 56%

    Tomorrow, 27 June, Tuesday

    Time Temperature Precipitation Wind Pressure Humidity
    00:00 +17°C° 0 mm 3 mps 648 mmHg 54%
    01:00 +16°C° 0 mm 3 mps 648 mmHg 51%
    02:00 +16°C° 0 mm 3 mps 648 mmHg 48%
    03:00 +16°C° 0 mm 3 mps 648 mmHg 46%
    04:00 +14°C° 0 mm 3 mps 648 mmHg 43%
    05:00 +14°C° 0 mm 3 mps 648 mmHg 41%
    06:00 +14°C° 0 mm 3 mps 649 mmHg 39%
    07:00 +16°C° 0 mm 3 mps 650 mmHg 37%
    08:00 +15°C° 0 mm 4 mps 650 mmHg 36%
    09:00 +18°C° 0 mm 4 mps 651 mmHg 36%
    10:00 +21°C° 0 mm 4 mps 652 mmHg 36%
    11:00 +23°C° 0 mm 4 mps 653 mmHg 36%
    12:00 +23°C° 0 mm 5 mps 652 mmHg 37%
    13:00 +25°C° 0 mm 5 mps 652 mmHg 37%
    14:00 +25°C° 0 mm 5 mps 651 mmHg 38%
    15:00 +22°C° 0 mm 5 mps 651 mmHg 44%
    16:00 +21°C° 0 mm 4 mps 651 mmHg 49%
    17:00 +19°C° 0 mm 4 mps 651 mmHg 55%
    18:00 +17°C° 0 mm 3 mps 651 mmHg 60%
    19:00 +14°C° 0 mm 3 mps 651 mmHg 64%
    20:00 +13°C° 0 mm 2 mps 652 mmHg 69%
    21:00 +13°C° 0 mm 2 mps 652 mmHg 67%
    22:00 +13°C° 0 mm 2 mps 652 mmHg 66%
    23:00 +12°C° 0 mm 2 mps 652 mmHg 64%

    Day after tomorrow, 28 June, Wednesday

    Time Temperature Precipitation Wind Pressure Humidity
    00:00 +12°C° 0 mm 2 mps 652 mmHg 62%
    01:00 +12°C° 0 mm 2 mps 652 mmHg 60%
    02:00 +12°C° 0 mm 2 mps 652 mmHg 58%
    03:00 +12°C° 0 mm 2 mps 651 mmHg 57%
    04:00 +10°C° 0 mm 2 mps 651 mmHg 56%
    05:00 +10°C° 0 mm 2 mps 651 mmHg 55%
    06:00 +12°C° 0 mm 2 mps 651 mmHg 54%
    07:00 +12°C° 0 mm 2 mps 652 mmHg 52%
    08:00 +13°C° 0 mm 2 mps 652 mmHg 51%
    09:00 +15°C° 0 mm 2 mps 652 mmHg 49%
    10:00 +17°C° 0 mm 2 mps 653 mmHg 47%
    11:00 +19°C° 0 mm 3 mps 653 mmHg 45%
    12:00 +19°C° 0 mm 3 mps 653 mmHg 45%
    13:00 +20°C° 0 mm 3 mps 652 mmHg 45%
    14:00 +20°C° 0 mm 3 mps 651 mmHg 46%
    15:00 +19°C° 0 mm 3 mps 651 mmHg 49%
    16:00 +18°C° 0 mm 3 mps 651 mmHg 53%
    17:00 +17°C° 0 mm 2 mps 650 mmHg 57%
    18:00 +16°C° 0 mm 2 mps 651 mmHg 60%
    19:00 +14°C° 0 mm 2 mps 651 mmHg 64%
    20:00 +12°C° 0 mm 2 mps 651 mmHg 67%
    21:00 +12°C° 0 mm 2 mps 651 mmHg 66%
    22:00 +12°C° 0 mm 2 mps 651 mmHg 64%
    23:00 +12°C° 0 mm 2 mps 651 mmHg 63%

    29 June, Thursday

    Time Temperature Precipitation Wind Pressure Humidity
    00:00 +12°C° 0 mm 2 mps 651 mmHg 63%
    01:00 +10°C° 0 mm 2 mps 651 mmHg 63%
    02:00 +10°C° 0 mm 2 mps 650 mmHg 63%
    03:00 +10°C° 0 mm 2 mps 650 mmHg 63%
    04:00 +11°C° 0 mm 1 mps 650 mmHg 63%
    05:00 +11°C° 0 mm 1 mps 650 mmHg 63%
    06:00 +12°C° 0 mm 2 mps 651 mmHg 59%
    07:00 +12°C° 0 mm 2 mps 652 mmHg 56%
    08:00 +13°C° 0 mm 2 mps 652 mmHg 53%
    09:00 +15°C° 0 mm 2 mps 653 mmHg 52%
    10:00 +17°C° 0 mm 2 mps 653 mmHg 50%
    11:00 +18°C° 0 mm 2 mps 654 mmHg 48%
    12:00 +19°C° 0 mm 2 mps 653 mmHg 47%
    13:00 +20°C° 0 mm 2 mps 653 mmHg 45%
    14:00 +20°C° 0 mm 2 mps 652 mmHg 44%
    15:00 +19°C° 0 mm 2 mps 652 mmHg 46%
    16:00 +19°C° 0 mm 2 mps 652 mmHg 49%
    17:00 +19°C° 0 mm 1 mps 652 mmHg 52%
    18:00 +16°C° 0 mm 1 mps 652 mmHg 59%
    19:00 +14°C° 0 mm 1 mps 652 mmHg 66%
    20:00 +11°C° 0 mm 1 mps 652 mmHg 73%
    21:00 +11°C° 0 mm 1 mps 652 mmHg 71%
    22:00 +11°C° 0 mm 1 mps 652 mmHg 68%
    23:00 +10°C° 0 mm 1 mps 652 mmHg 66%

    30 June, Friday

    Time Temperature Precipitation Wind Pressure Humidity
    00:00 +10°C° 0 mm 1 mps 652 mmHg 65%
    01:00 +10°C° 0 mm 1 mps 652 mmHg 64%
    02:00 +9°C° 0 mm 2 mps 651 mmHg 63%
    03:00 +8°C° 0 mm 2 mps 651 mmHg 63%
    04:00 +9°C° 0 mm 1 mps 651 mmHg 64%
    05:00 +9°C° 0 mm 1 mps 651 mmHg 65%
    06:00 +9°C° 0 mm 1 mps 652 mmHg 60%
    07:00 +10°C° 0 mm 1 mps 653 mmHg 56%
    08:00 +11°C° 0 mm 1 mps 653 mmHg 52%
    09:00 +13°C° 0 mm 1 mps 654 mmHg 46%
    10:00 +16°C° 0 mm 2 mps 655 mmHg 40%
    11:00 +19°C° 0 mm 2 mps 656 mmHg 34%
    12:00 +19°C° 0 mm 2 mps 656 mmHg 34%
    13:00 +20°C° 0 mm 3 mps 655 mmHg 34%
    14:00 +20°C° 0 mm 3 mps 655 mmHg 34%
    15:00 +19°C° 0 mm 3 mps 655 mmHg 40%
    16:00 +18°C° 0 mm 2 mps 655 mmHg 45%
    17:00 +17°C° 0 mm 2 mps 655 mmHg 51%
    18:00 +15°C° 0 mm 2 mps 655 mmHg 61%
    19:00 +13°C° 0 mm 1 mps 655 mmHg 72%
    20:00 +11°C° 0 mm 1 mps 655 mmHg 83%
    21:00 +10°C° 0 mm 1 mps 655 mmHg 84%
    22:00 +10°C° 0 mm 1 mps 655 mmHg 85%
    23:00 +9°C° 0 mm 1 mps 655 mmHg 86%

    1 July, Saturday

    Time Temperature Precipitation Wind Pressure Humidity
    00:00 +9°C° 0 mm 1 mps 655 mmHg 86%
    01:00 +9°C° 0 mm 1 mps 655 mmHg 86%
    02:00 +9°C° 0 mm 1 mps 655 mmHg 85%
    03:00 +8°C° 0 mm 1 mps 654 mmHg 85%
    04:00 +8°C° 0 mm 1 mps 654 mmHg 84%
    05:00 +8°C° 0 mm 1 mps 654 mmHg 84%
    06:00 +8°C° 0 mm 1 mps 655 mmHg 81%
    07:00 +9°C° 0 mm 1 mps 655 mmHg 78%
    08:00 +10°C° 0 mm 1 mps 656 mmHg 75%
    09:00 +12°C° 0 mm 1 mps 657 mmHg 65%
    10:00 +14°C° 0 mm 1 mps 657 mmHg 56%
    11:00 +17°C° 0 mm 2 mps 658 mmHg 46%
    12:00 +17°C° 0 mm 2 mps 657 mmHg 45%
    13:00 +18°C° 0 mm 2 mps 656 mmHg 44%
    14:00 +19°C° 0 mm 3 mps 656 mmHg 42%
    15:00 +18°C° 0 mm 3 mps 655 mmHg 48%
    16:00 +17°C° 0 mm 2 mps 655 mmHg 53%
    17:00 +16°C° 0 mm 2 mps 655 mmHg 58%
    18:00 +14°C° 0 mm 2 mps 655 mmHg 67%
    19:00 +13°C° 0 mm 2 mps 655 mmHg 77%
    20:00 +11°C° 0 mm 1 mps 655 mmHg 86%
    21:00 +10°C° 0 mm 1 mps 655 mmHg 86%
    22:00 +10°C° 0 mm 1 mps 655 mmHg 86%
    23:00 +10°C° 0 mm 1 mps 655 mmHg 87%
    Show more